Location: Kaseke
(18.0171°S, 31.0526°E)
Time: 12:24:55
(UTC+00:00)

Cosmos 540 Rocket - Pass Details

Date: 14 July 2020
Orbit: 740 x 753 km, 74.1° (Epoch: 07 August)

Event Time Altitude Azimuth Distance (km) Brightness Sun altitude
Rises 03:09:29 0° 341° (NNW) 3,184 6.7 -18.3°
Reaches altitude 10° 03:11:51 10° 339° (NNW) 2,267 5.9 -17.7°
Maximum altitude 03:16:57 67° 256° (WSW) 816 3.4 -16.6°
Drops below altitude 10° 03:22:07 10° 173° (S) 2,291 5.8 -15.4°
Sets 03:24:31 0° 170° (S) 3,221 6.6 -14.9°
